sat.trackr.live / text

‹ back to catalog

STARLINK-11343 [DTC]

NORAD 62017 · 2024-213K

PAYLOAD ACTIVE UNKNOWN

§ Identity

Operator
Country
US
Launch date
2024-11-18
Launch site
AFWTR
Launch vehicle
Mass (kg)
RCS (m²)

Purposes: comms

External: N2YO · Heavens-Above · Gunter

§ Orbital elements

Epoch: 2026-05-25T02:13:41.930688Z

Period
91.73 min
Inclination
53.1577°
Eccentricity
0.0000782
Mean motion
15.69764246 rev/d
Perigee alt
359.0 km
Apogee alt
360.1 km
Semi-major
6,737.7 km
B*
1.2311e-3
RAAN
24.7352°
Arg perigee
87.9172°
Mean anomaly
272.1936°
Rev number
8,691

§ Raw data

STARLINK-11343 [DTC]1 62017U 24213K   26145.09284642  .00151653  00000+0  12311-2 0  99912 62017  53.1577  24.7352 0000782  87.9172 272.1936 15.69764246 86914

JSON: /api/v1/satellites/62017 · /tle

For live sub-satellite position, see the globe view (requires WebGL).

§ Visibility from observer

Set your observer location to see the next 7 days of passes ≥ 10°. The values pass through the URL so the page stays shareable.

No JS? Fill the form by hand. The geolocation button needs JavaScript.